Tracking 18843 objects as of 20-November-2017
HD Live streaming from Space Station
objects crossing your sky now

METEOSAT 9 (MSG 2)

Track METEOSAT 9 (MSG 2) now!
METEOSAT 9 (MSG 2) is classified as:


NORAD ID: 28912
Int'l Code: 2005-049B
Perigee: 35,782.8 km
Apogee: 35,798.6 km
Inclination: 2.5 °
Period: 1,435.9 minutes
Semi major axis: 42161 km
RCS: 2.0767 m2 (large)
Launch date: December 21, 2005
Source: European Organisation for the Exploitation of Meteorological Satellites (EUME)
Launch site: FRENCH GUIANA (FRGUI)
aabbcc
Your satellite tracking list
Your tracking list is empty




NASA's NSSDC Master Catalog

Two Line Element Set (TLE):
1 28912U 05049B   17323.76507597 +.00000068 +00000-0 +00000-0 0  9996
2 28912 002.5082 071.4584 0001880 245.4584 027.3321 01.00282648043634
Source of the keplerian elements: AFSPC